Regional Weather Roundup
Issued by NWS

Home | Current Version | Previous Version | Graphics & Text | Print | Product List | Glossary On
Versions: 1 2 3 4 5 6 7 8 9 10 11 12 13 14 15 16 17 18 19 20 21 22 23 24 25 26 27 28 29 30 31 32 33 34 35 36 37 38 39 40 41 42 43 44 45 46 47 48 49 50
000
ASUS43 KTOP 262008
RWRKS

WEATHER ROUNDUP FOR KANSAS
NATIONAL WEATHER SERVICE GOODLAND KS
300 PM CDT SUN APR 26 2015

NOTE:  "FAIR" INDICATES FEW OR NO CLOUDS BELOW 12,000 FEET WITH NO
SIGNIFICANT WEATHER AND/OR OBSTRUCTIONS TO VISIBILITY.

KSZ001>006-013>018-027>032-041>047-262100-
NORTHWEST KANSAS

CITY           SKY/WX    TMP DP  RH WIND       PRES   REMARKS
GOODLAND       CLOUDY    44  43  96 E16       29.93R FOG
HAYS           CLOUDY    48  41  76 E18       29.92F
HILL CITY      CLOUDY    49  45  86 E14       29.94F FOG
RUSSELL        CLOUDY    49  47  93 NE17      29.92F FOG
$$

KSZ061>065-074>080-084>089-262100-
SOUTHWEST KANSAS

CITY           SKY/WX    TMP DP  RH WIND       PRES   REMARKS
DODGE CITY     CLOUDY    49  46  90 E16       29.85F FOG
ELKHART          N/A     51  45  80 E15         N/A
GARDEN CITY    FOG       46  46 100 NE20      29.84S VSB 1/2
GREAT BEND     CLOUDY    50  45  81 E18G25    29.89F
LIBERAL        CLOUDY    50  45  81 NE14      29.83S
$$

KSZ066>073-081>083-090>101-262100-
SOUTHEAST KANSAS

CITY           SKY/WX    TMP DP  RH WIND       PRES   REMARKS
CHANUTE        CLOUDY    55  47  74 NE14G23   29.91S
COFFEYVILLE    CLOUDY    58  50  75 NE18G25   29.86F
HUTCHINSON     CLOUDY    55  46  71 E16G23    29.89F
MEDICINE LODGE   N/A     57  50  77 NE15G26   29.82F
NEWTON         CLOUDY    52  43  71 NE12G17   29.92F
PARSONS        CLOUDY    58  50  75 NE9G20    29.89F
WICHITA INTL   CLOUDY    57  47  69 NE23      29.86F
WICHITA JABRA  CLOUDY    55  47  74 NE20G28   29.87F
WICHITA MCCONL CLOUDY    57  47  71 E20G26    29.86F
WINFIELD       PTSUNNY   62  49  62 E18G29    29.83F
$$

KSZ007>012-019>026-033>040-048>060-102>105-262100-
NORTHEAST KANSAS

CITY           SKY/WX    TMP DP  RH WIND       PRES   REMARKS
CONCORDIA      CLOUDY    50  43  77 E13       29.97S
EMPORIA        CLOUDY    52  44  74 NE13      29.93S
LAWRENCE       PTSUNNY   58  44  60 NE10G21   29.96F
MANHATTAN      CLOUDY    54  44  69 E17       29.96S
MARYSVILLE     CLOUDY    54  45  71 E13G20    29.98F
OLATHE IND     MOSUNNY   58  44  60 NE15G21   29.96S
OLATHE EXE     CLOUDY    59  45  59 E12G23    29.95S
SALINA         CLOUDY    54  44  69 NE15      29.94S
TOPEKA BILLARD PTSUNNY   57  45  64 NE14      29.96F
TOPEKA FORBES  CLOUDY    57  44  62 E16       29.94F
$$



USA.gov is the U.S. government's official web portal to all federal, state and local government web resources and services.